TimeCDT,TemperatureF,Dew PointF,Humidity,Sea Level PressureIn,VisibilityMPH,Wind Direction,Wind SpeedMPH,Gust SpeedMPH,PrecipitationIn,Events,Conditions,WindDirDegrees,DateUTC
1:53 AM,64.9,61.0,87,30.24,10.0,NE,4.6,-,N/A,,Clear,40,2012-10-13 06:53:00
2:53 AM,64.0,61.0,90,30.22,10.0,NE,4.6,-,N/A,,Clear,50,2012-10-13 07:53:00
3:53 AM,63.0,60.1,90,30.23,10.0,NNE,4.6,-,N/A,,Clear,30,2012-10-13 08:53:00
4:53 AM,63.0,60.1,90,30.24,10.0,NNE,4.6,-,N/A,,Clear,20,2012-10-13 09:53:00
5:53 AM,61.0,59.0,93,30.25,10.0,NNE,3.5,-,N/A,,Clear,30,2012-10-13 10:53:00
6:53 AM,61.0,59.0,93,30.27,10.0,NE,4.6,-,0.01,,Clear,40,2012-10-13 11:53:00
7:53 AM,64.9,61.0,87,30.28,10.0,ENE,5.8,-,N/A,,Clear,60,2012-10-13 12:53:00
8:53 AM,70.0,61.0,73,30.30,10.0,East,9.2,-,N/A,,Clear,80,2012-10-13 13:53:00
9:53 AM,72.0,62.1,71,30.31,10.0,Variable,6.9,-,N/A,,Clear,0,2012-10-13 14:53:00
10:53 AM,75.9,62.1,62,30.30,10.0,ESE,12.7,19.6,N/A,,Clear,110,2012-10-13 15:53:00
11:53 AM,79.0,63.0,58,30.28,10.0,SE,8.1,-,N/A,,Partly Cloudy,140,2012-10-13 16:53:00
1:53 PM,80.1,63.0,56,30.23,10.0,East,8.1,-,N/A,,Overcast,80,2012-10-13 18:53:00
2:53 PM,80.1,63.0,56,30.21,10.0,East,9.2,-,N/A,,Mostly Cloudy,90,2012-10-13 19:53:00
3:53 PM,79.0,62.1,56,30.21,10.0,ESE,5.8,-,N/A,,Partly Cloudy,120,2012-10-13 20:53:00
4:53 PM,80.1,62.1,54,30.20,10.0,ESE,5.8,-,N/A,,Clear,120,2012-10-13 21:53:00
5:53 PM,75.9,64.0,67,30.21,10.0,East,3.5,-,N/A,,Clear,90,2012-10-13 22:53:00
7:53 PM,70.0,62.1,76,30.22,10.0,Calm,Calm,-,N/A,,Clear,0,2012-10-14 00:53:00
8:53 PM,70.0,61.0,73,30.23,10.0,East,3.5,-,N/A,,Partly Cloudy,80,2012-10-14 01:53:00
9:53 PM,70.0,60.1,71,30.22,10.0,East,5.8,-,N/A,,Clear,90,2012-10-14 02:53:00
11:53 PM,66.9,61.0,81,30.22,10.0,East,4.6,-,N/A,,Clear,100,2012-10-14 04:53:00